Weather Roundup
Issued by NWS

Home | Current Version | Previous Version | Graphics & Text | Print | Product List | Glossary Off
Versions: 1 2 3 4 5 6 7 8 9 10 11 12 13 14 15 16 17 18 19 20 21 22 23 24 25 26 27 28 29 30 31 32 33 34 35 36 37 38 39 40 41 42 43 44 45 46 47 48 49 50

000
NZUS93 KARX 211310
HRRWXR

CURRENT HOURLY OBSERVATIONS ACROSS
MUCH OF THE UPPER MISSISSIPPI VALLEY
NATIONAL WEATHER SERVICE LA CROSSE WI
800 AM CDT SUN SEP 21 2014


...SOUTHEAST MINNESOTA...


CITY           SKY/WX    TMP DP  RH WIND       PRES   REMARKS
ROCHESTER      CLOUDY    52  47  83 NW16G23   29.99R
ROCHESTER/MAYO CLOUDY    53  47  82 W17G26    29.98R
WINONA         CLOUDY    54  50  87 NW17      29.95R
AUSTIN         MOSUNNY   52  48  87 NW17      30.00R
ALBERT LEA     SUNNY     54  50  87 NW12G18   30.03R
DODGE CENTER   CLOUDY    52  48  87 NW14      30.01R
PRESTON        CLOUDY    52  50  93 NW13G21   29.97R
OWATONNA       PTSUNNY   52  48  87 NW12G17   30.04R
FARIBAULT      CLEAR     54  46  76 NW9G18    30.04R
$$

...ELSEWHERE IN MINNESOTA...


CITY           SKY/WX    TMP DP  RH WIND       PRES   REMARKS
MINNEAPOLIS    MOCLDY    53  47  79 NW15      30.03R
INTNL FALLS    PTCLDY    48  47  96 NW7       30.06R
DULUTH         PTSUNNY   52  48  86 NW8       30.00R
RED WING       CLOUDY    54  50  87 NW9       29.99R
REDWOOD FALLS  CLEAR     51  49  92 NW8       30.11R
MANKATO        CLEAR     52  45  76 NW13      30.06R
WORTHINGTON    CLEAR     52  45  76 NW13      30.15R
FAIRMONT       CLEAR     54  45  71 NW14G21   30.09R
$$

...SOUTHWEST WISCONSIN...


CITY           SKY/WX    TMP DP  RH WIND       PRES   REMARKS
LA CROSSE      CLOUDY    57  49  74 NW16G23   29.92R
PRAIRIE DU CHI CLOUDY    56  47  71 NW13G24   29.92R
BOSCOBEL       CLOUDY    57  48  72 W9        29.91R
LONE ROCK      CLOUDY    60  48  64 W14G23    29.87R
PLATTEVILLE    PTSUNNY   55  51  87 NW13      29.90R
FORT MC COY    CLOUDY    55  48  77 NW12G21   29.91R
CAMP DOUGLAS   CLOUDY    54  54 100 NW16G23   29.87R
VIROQUA        CLOUDY    53  48  84 NW17G26   29.91R
WIS DELLS      CLOUDY    53  49  86 NW13      29.84R
$$

...ELSEWHERE IN WISCONSIN...


CITY           SKY/WX    TMP DP  RH WIND       PRES   REMARKS
MILWAUKEE      PTSUNNY   58  50  75 W13G25    29.75R
MADISON        CLOUDY    56  48  74 NW12G25   29.83R
GREEN BAY      CLOUDY    56  54  93 NW10      29.77R
EAU CLAIRE     CLOUDY    55  50  83 N13       29.93R
BLACK RVR FLS  CLOUDY    55  49  81 NW10G18   29.90R
MEDFORD        HVY RAIN  52  51  96 N15       29.88R
WAUSAU         CLOUDY    54  52  93 N8        29.83R
WIS RAPIDS     CLOUDY    54  52  93 NW12      29.86R
MARSHFIELD     LGT RAIN  55  53  93 NW15      29.87R
RICE LAKE      CLOUDY    52  49  89 NW7       29.98R
$$

...NORTHEAST IOWA...


CITY           SKY/WX    TMP DP  RH WIND       PRES   REMARKS
WATERLOO       SUNNY     54  48  80 NW14      29.99R
DUBUQUE        SUNNY     54  50  86 NW15G25   29.91R
DECORAH        CLOUDY    54  48  82 NW15G23   29.95R
MASON CITY     SUNNY     52  49  89 NW17G26   30.05R
CHARLES CITY   PTSUNNY   54  50  87 NW16G26   30.01R
OELWEIN        SUNNY     54  50  87 NW16G24   29.98R
$$

...ELSEWHERE IN IOWA...


CITY           SKY/WX    TMP DP  RH WIND       PRES   REMARKS
DES MOINES     SUNNY     57  48  72 NW10      30.07R
IOWA CITY        N/A     58  50  75 NW12      29.98R
FORT DODGE     CLEAR     54  46  76 NW5       30.07S
MARSHALLTOWN   SUNNY     53  48  83 W13       30.02R
CEDAR RAPIDS   SUNNY     55  50  83 NW15      29.97R
$$

...NORTHERN ILLINOIS...


CITY           SKY/WX    TMP DP  RH WIND       PRES   REMARKS
CHICAGO-OHARE  MOSUNNY   58  50  75 W20       29.81R
DUPAGE         SUNNY     57  52  83 W12       29.83R
CHICAGO-MIDWAY MOSUNNY   60  52  74 W18G28    29.82R
MOLINE         SUNNY     59  51  75 W15       29.93R
ROCKFORD       PTSUNNY   56  51  84 W13       29.87R
STERLING       SUNNY     57  52  82 NW15      29.89R
PEORIA         SUNNY     60  52  74 W8        29.94R
$$

NOTE: "FAIR" INDICATES FEW OR NO CLOUDS BELOW 12,000 FEET WITH NO
SIGNIFICANT WEATHER AND/OR OBSTRUCTIONS TO VISIBILITY. WIND
SPEEDS ARE IN MILES-PER-HOUR.



USA.gov is the U.S. government's official web portal to all federal, state and local government web resources and services.